Weather History for Eindhoven, Netherlands

Change the Weather History Date:

Sunday, May 19, 2013

  Actual Average Record
Temperature  
Mean Temperature 54 °F -  
Max Temperature 66 °F 67 °F 79 °F (2014)
Min Temperature 43 °F 49 °F 39 °F (2005)
Degree Days  
Heating Degree Days 10    
Growing Degree Days 4 (Base 50)    
Moisture  
Dew Point 47 °F    
Average Humidity 82    
Maximum Humidity 100    
Minimum Humidity 49    
Precipitation  
Precipitation 0.00 in - - ()
Sea Level Pressure  
Sea Level Pressure 29.79 in    
Wind  
Wind Speed 7 mph ()    
Max Wind Speed 13 mph    
Max Gust Speed -    
Visibility 4.8 miles    
Events      
Averages and records for this station are not official NWS values.
T = Trace of Precipitation, MM = Missing Value Source: Averaged Metar Reports

Daily Weather History Graph

Daily Weather History Graph

Search for Another Location

Airport:

Trip Planner

Search our weather history database for the weather conditions in past years. The results will help you decide how hot, cold, wet, or windy it might be!

Date:

Astronomy

May. 19, 2013 Rise Set
Actual Time 5:41 AM CEST 9:29 PM CEST
Civil Twilight 4:58 AM CEST 10:12 PM CEST
Nautical Twilight 4:00 AM CEST 11:11 PM CEST
Astronomical Twilight 2:23 AM CEST 12:52 AM CEST
Moon 2:35 PM CEST (5/19) 2:41 AM CEST (5/19)
Length of Visible Light 17h 13m
Length of Day
15h 48m
Waxing Gibbous, 62% of the Moon is Illuminated
May 19
Waxing Gibbous
May 25
Full
May 31
Last Quarter
Jun 8
New
Jun 16
First Quarter

Hourly Weather History & Observations

Time (CEST) Temp. Windchill Dew Point Humidity Pressure Visibility Wind Dir Wind Speed Gust Speed Precip Events Conditions
12:01 AM 46.4 °F 42.9 °F 44.6 °F 93% 29.80 in 5.0 mi NE 6.9 mph - N/A   Mist
12:05 AM 46.4 °F 42.9 °F 44.6 °F 93% 29.80 in 4.3 mi NE 6.9 mph - N/A   Mist
12:25 AM 46.4 °F 43.5 °F 44.6 °F 93% 29.80 in 3.7 mi NE 5.8 mph - N/A   Mist
12:42 AM 44.6 °F 41.4 °F 44.6 °F 100% 29.80 in - NE 5.8 mph - N/A   Mist
12:43 AM 44.6 °F 41.4 °F 44.6 °F 100% 29.80 in 3.1 mi NE 5.8 mph - N/A   Mist
12:55 AM 46.4 °F 43.5 °F 46.4 °F 100% 29.80 in 3.7 mi ENE 5.8 mph - N/A   Mist
1:08 AM 46.4 °F 43.5 °F 44.6 °F 93% 29.80 in 3.7 mi ENE 5.8 mph - N/A   Mist
1:25 AM 46.4 °F 43.5 °F 44.6 °F 93% 29.80 in 3.7 mi ENE 5.8 mph - N/A   Mist
1:55 AM 46.4 °F 43.5 °F 44.6 °F 93% 29.80 in 3.7 mi ENE 5.8 mph - N/A   Mist
2:00 AM 46 °F - 44 °F 88% 29.82 in 4 mi NE 4.5 mph - -   Mist
2:18 AM 44.6 °F 41.4 °F 42.8 °F 93% 29.80 in - NNE 5.8 mph - N/A   Mist
2:25 AM 44.6 °F 40.7 °F 42.8 °F 93% 29.80 in - NNE 6.9 mph - N/A   Mist
2:43 AM 44.6 °F 41.4 °F 44.6 °F 100% 29.80 in - NNE 5.8 mph - N/A   Mist
2:47 AM 44.6 °F 42.2 °F 44.6 °F 100% 29.80 in 2.5 mi NNE 4.6 mph - N/A   Mist
2:55 AM 44.6 °F 42.2 °F 42.8 °F 93% 29.80 in - NE 4.6 mph - N/A   Mist
3:08 AM 42.8 °F 39.3 °F 42.8 °F 100% 29.80 in - NNE 5.8 mph - N/A   Mist
3:19 AM 44.6 °F 40.2 °F 42.8 °F 93% 29.80 in - NNE 8.1 mph - N/A   Mist
3:25 AM 42.8 °F 39.3 °F 42.8 °F 100% 29.80 in - NNE 5.8 mph - N/A   Mist
3:26 AM 42.8 °F 39.3 °F 42.8 °F 100% 29.80 in - NNE 5.8 mph - N/A   Mist
3:55 AM 42.8 °F 38.6 °F 42.8 °F 100% 29.80 in 1.7 mi NNE 6.9 mph - N/A   Mist
4:25 AM 44.6 °F 41.4 °F 44.6 °F 100% 29.80 in 1.6 mi NE 5.8 mph - N/A   Mist
4:55 AM 44.6 °F 40.7 °F 44.6 °F 100% 29.80 in 1.6 mi NNE 6.9 mph - N/A   Mist
5:00 AM 44 °F - 44 °F 100% 29.81 in 1 mi NNE 6.7 mph - -   Mist
5:25 AM 44.6 °F 41.4 °F 44.6 °F 100% 29.80 in 1.5 mi NE 5.8 mph - N/A   Mist
5:55 AM 44.6 °F 41.4 °F 44.6 °F 100% 29.80 in 1.4 mi NE 5.8 mph - N/A   Mist
6:25 AM 44.6 °F 41.4 °F 44.6 °F 100% 29.80 in 1.3 mi NE 5.8 mph - N/A   Mist
6:55 AM 46.4 °F 42.9 °F 44.6 °F 93% 29.83 in 1.7 mi NNE 6.9 mph - N/A   Mist
7:19 AM 48.2 °F - 46.4 °F 93% 29.83 in - NE 5.8 mph - N/A   Mist
7:25 AM 48.2 °F - 46.4 °F 93% 29.83 in - NE 6.9 mph - N/A   Mist
7:30 AM 48.2 °F - 46.4 °F 93% 29.83 in - NE 6.9 mph - N/A   Mist
7:40 AM 50.0 °F - 46.4 °F 87% 29.83 in - NE 6.9 mph - N/A   Mist
7:55 AM 50.0 °F - 46.4 °F 87% 29.83 in 3.1 mi NE 6.9 mph - N/A   Mist
8:00 AM 51 °F - 47 °F 82% 29.83 in 3 mi NE 6.7 mph - -   Mist
8:06 AM 51.8 °F - 46.4 °F 82% 29.83 in 3.1 mi NE 6.9 mph - N/A   Mist
8:25 AM 51.8 °F - 48.2 °F 88% 29.83 in 4.3 mi NE 9.2 mph - N/A   Mist
8:55 AM 53.6 °F - 48.2 °F 82% 29.83 in 4.3 mi NE 10.4 mph - N/A   Mist
8:59 AM 53.6 °F - 48.2 °F 82% 29.83 in 5.0 mi NE 10.4 mph - N/A   Mist
9:09 AM 55.4 °F - 48.2 °F 77% 29.83 in 5.0 mi NE 10.4 mph - N/A   Haze
9:25 AM 55.4 °F - 50.0 °F 82% 29.80 in 5.6 mi NE 8.1 mph - N/A   Haze
9:55 AM 57.2 °F - 48.2 °F 72% 29.80 in 5.6 mi NE 11.5 mph - N/A   Haze
10:25 AM 57.2 °F - 50.0 °F 77% 29.80 in 6.2 mi NNE 12.7 mph - N/A   Partly Cloudy
10:55 AM 59.0 °F - 50.0 °F 72% 29.77 in 6.2 mi NNE 12.7 mph - N/A   Unknown
11:00 AM 59 °F - 49 °F 62% 29.80 in 6 mi NE 11.2 mph - -   Scattered Clouds
11:25 AM 59.0 °F - 48.2 °F 67% 29.77 in 6.2 mi NE 12.7 mph - N/A   Unknown
11:55 AM 60.8 °F - 50.0 °F 68% 29.77 in 6.2 mi NNE 11.5 mph - N/A   Unknown
12:25 PM 62.6 °F - 50.0 °F 63% 29.77 in 6.2 mi NNE 10.4 mph - N/A   Scattered Clouds
12:55 PM 62.6 °F - 50.0 °F 63% 29.77 in 6.2 mi North 11.5 mph - N/A   Partly Cloudy
1:06 PM 62.6 °F - 50.0 °F 63% 29.77 in - North 11.5 mph - N/A   Haze
1:07 PM 62.6 °F - 50.0 °F 63% 29.77 in 6.2 mi North 10.4 mph - N/A   Partly Cloudy
1:25 PM 64.4 °F - 50.0 °F 59% 29.77 in 6.2 mi NNE 11.5 mph - N/A   Partly Cloudy
1:55 PM 64.4 °F - 51.8 °F 64% 29.77 in 6.2 mi North 11.5 mph - N/A   Unknown
2:00 PM 64 °F - 50 °F 51% 29.79 in 7 mi NNE 11.2 mph - -   Partly Cloudy
2:25 PM 64.4 °F - 50.0 °F 59% 29.77 in 6.2 mi NNE 10.4 mph - N/A   Partly Cloudy
2:55 PM 64.4 °F - 50.0 °F 59% 29.77 in 6.2 mi North 11.5 mph - N/A   Scattered Clouds
3:04 PM 66.2 °F - 51.8 °F 60% 29.77 in 6.2 mi NNE 11.5 mph - N/A   Partly Cloudy
3:25 PM 66.2 °F - 50.0 °F 56% 29.77 in 6.2 mi NNE 10.4 mph - N/A   Partly Cloudy
3:55 PM 64.4 °F - 50.0 °F 59% 29.77 in 6.2 mi NNE 10.4 mph - N/A   Partly Cloudy
4:25 PM 66.2 °F - 50.0 °F 56% 29.77 in 6.2 mi NNE 10.4 mph - N/A   Scattered Clouds
4:55 PM 66.2 °F - 50.0 °F 56% 29.77 in 6.2 mi North 11.5 mph - N/A   Scattered Clouds
5:00 PM 65 °F - 50 °F 49% 29.77 in 11 mi NNE 11.2 mph - -   Scattered Clouds
5:25 PM 64.4 °F - 50.0 °F 59% 29.77 in 6.2 mi North 11.5 mph - N/A   Partly Cloudy
5:55 PM 62.6 °F - 50.0 °F 63% 29.77 in 6.2 mi NNE 11.5 mph - N/A   Scattered Clouds
6:25 PM 64.4 °F - 51.8 °F 64% 29.77 in 6.2 mi North 10.4 mph - N/A   Mostly Cloudy
6:55 PM 62.6 °F - 50.0 °F 63% 29.77 in 6.2 mi North 12.7 mph - N/A   Partly Cloudy
7:25 PM 60.8 °F - 50.0 °F 68% 29.77 in 6.2 mi NNW 12.7 mph - N/A   Partly Cloudy
7:55 PM 59.0 °F - 50.0 °F 72% 29.77 in 6.2 mi North 10.4 mph - N/A   Unknown
8:00 PM 58 °F - 49 °F 65% 29.78 in 7 mi North 13.4 mph - -   Partly Cloudy
8:25 PM 57.2 °F - 50.0 °F 77% 29.77 in 6.2 mi NNW 12.7 mph - N/A   Unknown
8:55 PM 55.4 °F - 50.0 °F 82% 29.77 in 6.2 mi NNW 8.1 mph - N/A   Unknown
9:25 PM 55.4 °F - 48.2 °F 77% 29.77 in 6.2 mi NNW 6.9 mph - N/A   Unknown
9:55 PM 53.6 °F - 48.2 °F 82% 29.77 in 5.6 mi NNW 6.9 mph - N/A   Haze
10:25 PM 51.8 °F - 48.2 °F 88% 29.80 in 5.0 mi NW 6.9 mph - N/A   Mist
10:49 PM 51.8 °F - 48.2 °F 88% 29.77 in 4.3 mi NW 8.1 mph - N/A   Mist
10:50 PM 51.8 °F - 48.2 °F 88% 29.77 in 5.0 mi NW 8.1 mph - N/A   Mist
10:51 PM 51.8 °F - 48.2 °F 88% 29.77 in 4.3 mi NW 6.9 mph - N/A   Mist
10:55 PM 51.8 °F - 48.2 °F 88% 29.77 in 4.3 mi NW 6.9 mph - N/A   Mist
10:59 PM 51.8 °F - 48.2 °F 88% 29.77 in 5.0 mi NW 6.9 mph - N/A   Mist
11:00 PM 51 °F - 47 °F 83% 29.80 in 4 mi NW 6.7 mph - -   Mist
11:00 PM 51.8 °F - 48.2 °F 88% 29.77 in 4.3 mi NW 6.9 mph - N/A   Mist
11:11 PM 50.0 °F - 48.2 °F 94% 29.77 in 4.3 mi NW 5.8 mph - N/A   Mist
11:13 PM 50.0 °F - 48.2 °F 94% 29.77 in 4.3 mi NW 5.8 mph - N/A   Mist
11:25 PM 50.0 °F - 48.2 °F 94% 29.77 in 4.3 mi NNW 4.6 mph - N/A   Partly Cloudy
11:46 PM 50.0 °F - 48.2 °F 94% 29.77 in 5.0 mi NW 3.5 mph - N/A   Overcast
11:50 PM 50.0 °F - 48.2 °F 94% 29.77 in 4.3 mi NW 3.5 mph - N/A   Overcast
11:55 PM 50.0 °F - 48.2 °F 94% 29.77 in 5.0 mi NW 3.5 mph - N/A   Overcast
11:59 PM 51.8 °F - 48.2 °F 88% 29.77 in 4.3 mi NW 3.5 mph - N/A   Overcast